Weather in Varmdo

Sweden     59°21′27″N   18°30′23″E
В апреле 2022 года жителям России запретили посещать сайт meteo.paraplan.net по решению Генеральной прокуратуры. Аудитория сайта уменьшилась в 10 раз. Владельцы сайта не видят смысла в поддержке погодного сервера в таких условиях. Сайт будет закрыт в октябре.
temp.,
°C
wind,
m/s
gust,
m/s
humid.,
%
clouds,
%
prec.,
mm/h
press.,
hPa
HPBL,
m
25 september, sun
sun2523:00+12wsw347999 0.1 1014180
02:00+12sw228290 0.2 101480
05:00+12wsw117858 0.1 101452
08:00+12e117734 0.1 101361
11:00+14s226882 0.0 1012362
14:00+14s447024 0.1 1010442
17:00+13s57765 0.0 1008375
20:00+12ssw588177 0.3 1007435
26 september, mon
mon2623:00+13s68795 0.1 1005489
02:00+13s587925 0.4 1003329
05:00+13s587699 0.4 1001335
08:00+13s478164 1.3 1001393
11:00+13sse81182100 0.8 1001836
14:00+13sse101285100 2.9 1000778
17:00+13s71084100 1.0 1000635
20:00+13s6984100 1.2 1001491
27 september, tue
tue2723:00+13s7984100 0.4 1001606
02:00+13s7983100 0.8 1002669
05:00+13sse71080100 0.3 1002712
08:00+13se81083100 0.5 1003648
11:00+13se9119090 1.5 1004701
14:00+13se91287100 3.3 1004630
17:00+13ese101385100 1.6 1004676
20:00+13ese9147897 1.8 1005650
28 september, wed
wed2823:00+13ese10147760 0.1 1005628
02:00+13e10138276 0.1 1005581
05:00+12e91282100 0.0 1005641
08:00+12e101276100 0.0 1005824
11:00+12e10116993 0.0 10051123
14:00+12e9117297 0.1 10041142
17:00+11e897393 0.4 1004990
20:00+12e9106996 0.9 10041073
29 september, thu
thu2923:00+12e8107288 0.6 1003926
02:00+11ene9107450 1.1 1003919
05:00+11ene81076100 0.5 1002942
08:00+11e81077100 1.9 1001933
11:00+11ene91074100 0.9 10011094
14:00+11e7976100 1.8 10011102
17:00+11ene7977100 0.6 1002835
20:00+11ne6881100 1.3 1003669